Location: ??
(35.4032°N, 139.3073°E)
Time: 10:58:22
(UTC+00:00)

Cosmos 1733 - Pass Details

Date: 13 April 2024
Orbit: 457 x 470 km, 82.5° (Epoch: 21 May)

Event Time Altitude Azimuth Distance (km) Brightness Sun altitude
Rises 18:09:03 0° 352° (N) 2,543 7.0 -23.9°
Reaches altitude 10° 18:11:09 10° 351° (N) 1,658 6.0 -23.6°
Enters shadow 18:13:22 35° 347° (NNW) 791 4.2 -23.2°
